Year,Month,Day,Hour,Minute,Value (Times are PST for temperature in C)
2009,07,27,00,00,14.10
2009,07,27,00,01,14.10
2009,07,27,00,02,14.00
2009,07,27,00,03,14.00
2009,07,27,00,04,14.10
2009,07,27,00,05,14.10
2009,07,27,00,06,14.10
2009,07,27,00,07,14.20
2009,07,27,00,08,14.20
2009,07,27,00,09,14.20
2009,07,27,00,10,14.20
2009,07,27,00,11,14.30
2009,07,27,00,12,14.40
2009,07,27,00,13,14.50
2009,07,27,00,14,14.50
2009,07,27,00,15,14.70
2009,07,27,00,16,14.80
2009,07,27,00,17,14.80
2009,07,27,00,18,14.80
2009,07,27,00,19,14.90
2009,07,27,00,20,15.00
2009,07,27,00,21,15.00
2009,07,27,00,22,15.10
2009,07,27,00,23,15.10
2009,07,27,00,24,15.20
2009,07,27,00,25,15.20
2009,07,27,00,26,15.20
2009,07,27,00,27,15.30
2009,07,27,00,28,15.30
2009,07,27,00,29,15.30
2009,07,27,00,30,15.30
2009,07,27,00,31,15.30
2009,07,27,00,32,15.30
2009,07,27,00,33,15.30
2009,07,27,00,34,15.30
2009,07,27,00,35,15.20
2009,07,27,00,36,15.20
2009,07,27,00,37,15.20
2009,07,27,00,38,15.20
2009,07,27,00,39,15.20
2009,07,27,00,40,15.30
2009,07,27,00,41,15.30
2009,07,27,00,42,15.30
2009,07,27,00,43,15.30
2009,07,27,00,44,15.30
2009,07,27,00,45,15.30
2009,07,27,00,46,15.30
2009,07,27,00,47,15.30
2009,07,27,00,48,15.20
2009,07,27,00,49,15.20
2009,07,27,00,50,15.20
2009,07,27,00,51,15.20
2009,07,27,00,52,15.20
2009,07,27,00,53,15.10
2009,07,27,00,54,15.10
2009,07,27,00,55,15.10
2009,07,27,00,56,15.10
2009,07,27,00,57,15.10
2009,07,27,00,58,15.10
2009,07,27,00,59,15.10
2009,07,27,01,00,15.10
2009,07,27,01,01,15.10
2009,07,27,01,02,15.20
2009,07,27,01,03,15.20
2009,07,27,01,04,15.30
2009,07,27,01,05,15.30
2009,07,27,01,06,15.30
2009,07,27,01,07,15.30
2009,07,27,01,08,15.40
2009,07,27,01,09,15.40
2009,07,27,01,10,15.40
2009,07,27,01,11,15.50
2009,07,27,01,12,15.50
2009,07,27,01,13,15.60
2009,07,27,01,14,15.70
2009,07,27,01,15,15.70
2009,07,27,01,16,15.70
2009,07,27,01,17,15.80
2009,07,27,01,18,15.80
2009,07,27,01,19,15.80
2009,07,27,01,20,15.80
2009,07,27,01,21,15.80
2009,07,27,01,22,15.80
2009,07,27,01,23,15.90
2009,07,27,01,24,15.90
2009,07,27,01,25,15.90
2009,07,27,01,26,15.90
2009,07,27,01,27,15.90
2009,07,27,01,28,15.90
2009,07,27,01,29,15.90
2009,07,27,01,30,15.90
2009,07,27,01,31,15.80
2009,07,27,01,32,15.80
2009,07,27,01,33,15.80
2009,07,27,01,34,15.70
2009,07,27,01,35,15.60
2009,07,27,01,36,15.50
2009,07,27,01,37,15.50
2009,07,27,01,38,15.30
2009,07,27,01,39,15.20
2009,07,27,01,40,15.10
2009,07,27,01,41,15.00
2009,07,27,01,42,14.80
2009,07,27,01,43,14.80
2009,07,27,01,44,14.70
2009,07,27,01,45,14.70
2009,07,27,01,46,14.70
2009,07,27,01,47,14.60
2009,07,27,01,48,14.60
2009,07,27,01,49,14.60
2009,07,27,01,50,14.50
2009,07,27,01,51,14.50
2009,07,27,01,52,14.40
2009,07,27,01,53,14.40
2009,07,27,01,54,14.40
2009,07,27,01,55,14.50
2009,07,27,01,56,14.50
2009,07,27,01,57,14.60
2009,07,27,01,58,14.70
2009,07,27,01,59,14.70
2009,07,27,02,00,14.80
2009,07,27,02,01,14.80
2009,07,27,02,02,14.80
2009,07,27,02,03,14.80
2009,07,27,02,04,14.90
2009,07,27,02,05,14.90
2009,07,27,02,06,14.90
2009,07,27,02,07,15.00
2009,07,27,02,08,15.00
2009,07,27,02,09,15.00
2009,07,27,02,10,15.00
2009,07,27,02,11,15.00
2009,07,27,02,12,15.00
2009,07,27,02,13,15.00
2009,07,27,02,14,15.00
2009,07,27,02,15,15.00
2009,07,27,02,16,15.10
2009,07,27,02,17,15.10
2009,07,27,02,18,15.00
2009,07,27,02,19,15.00
2009,07,27,02,20,15.00
2009,07,27,02,21,15.00
2009,07,27,02,22,15.00
2009,07,27,02,23,15.00
2009,07,27,02,24,14.90
2009,07,27,02,25,14.90
2009,07,27,02,26,14.90
2009,07,27,02,27,14.90
2009,07,27,02,28,14.90
2009,07,27,02,29,14.90
2009,07,27,02,30,14.90
2009,07,27,02,31,14.90
2009,07,27,02,32,14.80
2009,07,27,02,33,14.80
2009,07,27,02,34,14.70
2009,07,27,02,35,14.60
2009,07,27,02,36,14.50
2009,07,27,02,37,14.50
2009,07,27,02,38,14.40
2009,07,27,02,39,14.30
2009,07,27,02,40,14.30
2009,07,27,02,41,14.20
2009,07,27,02,42,14.20
2009,07,27,02,43,14.20
2009,07,27,02,44,14.10
2009,07,27,02,45,14.10
2009,07,27,02,46,14.10
2009,07,27,02,47,14.00
2009,07,27,02,48,14.00
2009,07,27,02,49,14.00
2009,07,27,02,50,13.90
2009,07,27,02,51,13.90
2009,07,27,02,52,13.90
2009,07,27,02,53,13.90
2009,07,27,02,54,13.90
2009,07,27,02,55,13.90
2009,07,27,02,56,13.90
2009,07,27,02,57,13.90
2009,07,27,02,58,13.80
2009,07,27,02,59,13.80
2009,07,27,03,00,13.80
2009,07,27,03,01,13.70
2009,07,27,03,02,13.70
2009,07,27,03,03,13.70
2009,07,27,03,04,13.70
2009,07,27,03,05,13.70
2009,07,27,03,06,13.70
2009,07,27,03,07,13.70
2009,07,27,03,08,13.70
2009,07,27,03,09,13.70
2009,07,27,03,10,13.70
2009,07,27,03,11,13.60
2009,07,27,03,12,13.60
2009,07,27,03,13,13.60
2009,07,27,03,14,13.60
2009,07,27,03,15,13.50
2009,07,27,03,16,13.50
2009,07,27,03,17,13.50
2009,07,27,03,18,13.50
2009,07,27,03,19,13.50
2009,07,27,03,20,13.50
2009,07,27,03,21,13.60
2009,07,27,03,22,13.60
2009,07,27,03,23,13.60
2009,07,27,03,24,13.60
2009,07,27,03,25,13.60
2009,07,27,03,26,13.60
2009,07,27,03,27,13.60
2009,07,27,03,28,13.70
2009,07,27,03,29,13.70
2009,07,27,03,30,13.70
2009,07,27,03,31,13.70
2009,07,27,03,32,13.70
2009,07,27,03,33,13.70
2009,07,27,03,34,13.80
2009,07,27,03,35,13.90
2009,07,27,03,36,13.90
2009,07,27,03,37,13.90
2009,07,27,03,38,14.00
2009,07,27,03,39,14.00
2009,07,27,03,40,14.10
2009,07,27,03,41,14.10
2009,07,27,03,42,14.20
2009,07,27,03,43,14.20
2009,07,27,03,44,14.20
2009,07,27,03,45,14.20
2009,07,27,03,46,14.30
2009,07,27,03,47,14.40
2009,07,27,03,48,14.40
2009,07,27,03,49,14.50
2009,07,27,03,50,14.50
2009,07,27,03,51,14.50
2009,07,27,03,52,14.60
2009,07,27,03,53,14.60
2009,07,27,03,54,14.60
2009,07,27,03,55,14.60
2009,07,27,03,56,14.70
2009,07,27,03,57,14.70
2009,07,27,03,58,14.70
2009,07,27,03,59,14.80
2009,07,27,04,00,14.80
2009,07,27,04,01,14.80
2009,07,27,04,02,14.80
2009,07,27,04,03,14.80
2009,07,27,04,04,14.80
2009,07,27,04,05,14.80
2009,07,27,04,06,14.80
2009,07,27,04,07,14.80
2009,07,27,04,08,14.80
2009,07,27,04,09,14.80
2009,07,27,04,10,14.90
2009,07,27,04,11,14.90
2009,07,27,04,12,14.90
2009,07,27,04,13,14.90
2009,07,27,04,14,14.90
2009,07,27,04,15,14.90
2009,07,27,04,16,14.90
2009,07,27,04,17,14.90
2009,07,27,04,18,14.90
2009,07,27,04,19,14.90
2009,07,27,04,20,14.90
2009,07,27,04,21,14.90
2009,07,27,04,22,14.90
2009,07,27,04,23,14.90
2009,07,27,04,24,14.90
2009,07,27,04,25,14.90
2009,07,27,04,26,14.90
2009,07,27,04,27,14.80
2009,07,27,04,28,14.80
2009,07,27,04,29,14.80
2009,07,27,04,30,14.70
2009,07,27,04,31,14.60
2009,07,27,04,32,14.60
2009,07,27,04,33,14.50
2009,07,27,04,34,14.50
2009,07,27,04,35,14.50
2009,07,27,04,36,14.40
2009,07,27,04,37,14.40
2009,07,27,04,38,14.40
2009,07,27,04,39,14.30
2009,07,27,04,40,14.30
2009,07,27,04,41,14.30
2009,07,27,04,42,14.20
2009,07,27,04,43,14.20
2009,07,27,04,44,14.20
2009,07,27,04,45,14.30
2009,07,27,04,46,14.30
2009,07,27,04,47,14.30
2009,07,27,04,48,14.40
2009,07,27,04,49,14.40
2009,07,27,04,50,14.40
2009,07,27,04,51,14.50
2009,07,27,04,52,14.50
2009,07,27,04,53,14.50
2009,07,27,04,54,14.50
2009,07,27,04,55,14.60
2009,07,27,04,56,14.60
2009,07,27,04,57,14.60
2009,07,27,04,58,14.70
2009,07,27,04,59,14.70
2009,07,27,05,00,14.80
2009,07,27,05,01,14.80
2009,07,27,05,02,14.80
2009,07,27,05,03,14.80
2009,07,27,05,04,14.80
2009,07,27,05,05,14.80
2009,07,27,05,06,14.90
2009,07,27,05,07,14.90
2009,07,27,05,08,14.90
2009,07,27,05,09,15.00
2009,07,27,05,10,15.00
2009,07,27,05,11,15.00
2009,07,27,05,12,15.10
2009,07,27,05,13,15.10
2009,07,27,05,14,15.10
2009,07,27,05,15,15.10
2009,07,27,05,16,15.10
2009,07,27,05,17,15.20
2009,07,27,05,18,15.20
2009,07,27,05,19,15.20
2009,07,27,05,20,15.20
2009,07,27,05,21,15.20
2009,07,27,05,22,15.20
2009,07,27,05,23,15.20
2009,07,27,05,24,15.30
2009,07,27,05,25,15.30
2009,07,27,05,26,15.30
2009,07,27,05,27,15.30
2009,07,27,05,28,15.30
2009,07,27,05,29,15.30
2009,07,27,05,30,15.30
2009,07,27,05,31,15.30
2009,07,27,05,32,15.30
2009,07,27,05,33,15.30
2009,07,27,05,34,15.30
2009,07,27,05,35,15.30
2009,07,27,05,36,15.40
2009,07,27,05,37,15.40
2009,07,27,05,38,15.40
2009,07,27,05,39,15.40
2009,07,27,05,40,15.40
2009,07,27,05,41,15.50
2009,07,27,05,42,15.50
2009,07,27,05,43,15.50
2009,07,27,05,44,15.50
2009,07,27,05,45,15.50
2009,07,27,05,46,15.60
2009,07,27,05,47,15.60
2009,07,27,05,48,15.60
2009,07,27,05,49,15.60
2009,07,27,05,50,15.60
2009,07,27,05,51,15.60
2009,07,27,05,52,15.60
2009,07,27,05,53,15.60
2009,07,27,05,54,15.60
2009,07,27,05,55,15.60
2009,07,27,05,56,15.60
2009,07,27,05,57,15.60
2009,07,27,05,58,15.70
2009,07,27,05,59,15.70
2009,07,27,06,00,15.70
2009,07,27,06,01,15.70
2009,07,27,06,02,15.80
2009,07,27,06,03,15.80
2009,07,27,06,04,15.80
2009,07,27,06,05,15.80
2009,07,27,06,06,15.80
2009,07,27,06,07,15.90
2009,07,27,06,08,16.00
2009,07,27,06,09,16.10
2009,07,27,06,10,16.10
2009,07,27,06,11,16.10
2009,07,27,06,12,16.10
2009,07,27,06,13,16.10
2009,07,27,06,14,16.20
2009,07,27,06,15,16.20
2009,07,27,06,16,16.20
2009,07,27,06,17,16.20
2009,07,27,06,18,16.20
2009,07,27,06,19,16.30
2009,07,27,06,20,16.30
2009,07,27,06,21,16.30
2009,07,27,06,22,16.40
2009,07,27,06,23,16.40
2009,07,27,06,24,16.50
2009,07,27,06,25,16.60
2009,07,27,06,26,16.70
2009,07,27,06,27,16.70
2009,07,27,06,28,16.80
2009,07,27,06,29,16.80
2009,07,27,06,30,16.90
2009,07,27,06,31,17.00
2009,07,27,06,32,17.00
2009,07,27,06,33,17.10
2009,07,27,06,34,17.10
2009,07,27,06,35,17.20
2009,07,27,06,36,17.30
2009,07,27,06,37,17.30
2009,07,27,06,38,17.30
2009,07,27,06,39,17.40
2009,07,27,06,40,17.50
2009,07,27,06,41,17.50
2009,07,27,06,42,17.60
2009,07,27,06,43,17.70
2009,07,27,06,44,17.80
2009,07,27,06,45,17.80
2009,07,27,06,46,17.90
2009,07,27,06,47,18.00
2009,07,27,06,48,18.10
2009,07,27,06,49,18.20
2009,07,27,06,50,18.30
2009,07,27,06,51,18.50
2009,07,27,06,52,18.60
2009,07,27,06,53,18.70
2009,07,27,06,54,18.80
2009,07,27,06,55,18.70
2009,07,27,06,56,18.50
2009,07,27,06,57,18.30
2009,07,27,06,58,18.10
2009,07,27,06,59,17.90
2009,07,27,07,00,17.80
2009,07,27,07,01,17.70
2009,07,27,07,02,17.60
2009,07,27,07,03,17.50
2009,07,27,07,04,17.50
2009,07,27,07,05,17.50
2009,07,27,07,06,17.50
2009,07,27,07,07,17.50
2009,07,27,07,08,17.50
2009,07,27,07,09,17.50
2009,07,27,07,10,17.50
2009,07,27,07,11,17.50
2009,07,27,07,12,17.50
2009,07,27,07,13,17.50
2009,07,27,07,14,17.50
2009,07,27,07,15,17.40
2009,07,27,07,16,17.40
2009,07,27,07,17,17.30
2009,07,27,07,18,17.30
2009,07,27,07,19,17.20
2009,07,27,07,20,17.10
2009,07,27,07,21,17.10
2009,07,27,07,22,17.10
2009,07,27,07,23,17.10
2009,07,27,07,24,17.10
2009,07,27,07,25,17.20
2009,07,27,07,26,17.20
2009,07,27,07,27,17.20
2009,07,27,07,28,17.30
2009,07,27,07,29,17.30
2009,07,27,07,30,17.30
2009,07,27,07,31,17.30
2009,07,27,07,32,17.30
2009,07,27,07,33,17.30
2009,07,27,07,34,17.30
2009,07,27,07,35,17.40
2009,07,27,07,36,17.40
2009,07,27,07,37,17.50
2009,07,27,07,38,17.60
2009,07,27,07,39,17.70
2009,07,27,07,40,17.80
2009,07,27,07,41,17.90
2009,07,27,07,42,17.90
2009,07,27,07,43,17.90
2009,07,27,07,44,18.10
2009,07,27,07,45,18.10
2009,07,27,07,46,18.10
2009,07,27,07,47,18.20
2009,07,27,07,48,18.20
2009,07,27,07,49,18.20
2009,07,27,07,50,18.30
2009,07,27,07,51,18.30
2009,07,27,07,52,18.40
2009,07,27,07,53,18.50
2009,07,27,07,54,18.50
2009,07,27,07,55,18.60
2009,07,27,07,56,18.60
2009,07,27,07,57,18.60
2009,07,27,07,58,18.70
2009,07,27,07,59,18.60
2009,07,27,08,00,18.60
2009,07,27,08,01,18.60
2009,07,27,08,02,18.60
2009,07,27,08,03,18.60
2009,07,27,08,04,18.50
2009,07,27,08,05,18.50
2009,07,27,08,06,18.40
2009,07,27,08,07,18.30
2009,07,27,08,08,18.20
2009,07,27,08,09,18.10
2009,07,27,08,10,18.10
2009,07,27,08,11,18.10
2009,07,27,08,12,18.10
2009,07,27,08,13,18.10
2009,07,27,08,14,18.10
2009,07,27,08,15,18.20
2009,07,27,08,16,18.20
2009,07,27,08,17,18.30
2009,07,27,08,18,18.40
2009,07,27,08,19,18.50
2009,07,27,08,20,18.60
2009,07,27,08,21,18.70
2009,07,27,08,22,18.70
2009,07,27,08,23,18.80
2009,07,27,08,24,18.90
2009,07,27,08,25,19.00
2009,07,27,08,26,19.10
2009,07,27,08,27,19.20
2009,07,27,08,28,19.30
2009,07,27,08,29,19.40
2009,07,27,08,30,19.50
2009,07,27,08,31,19.60
2009,07,27,08,32,19.80
2009,07,27,08,33,19.90
2009,07,27,08,34,20.00
2009,07,27,08,35,20.10
2009,07,27,08,36,20.20
2009,07,27,08,37,20.40
2009,07,27,08,38,20.40
2009,07,27,08,39,20.50
2009,07,27,08,40,20.50
2009,07,27,08,41,20.60
2009,07,27,08,42,20.60
2009,07,27,08,43,20.50
2009,07,27,08,44,20.50
2009,07,27,08,45,20.50
2009,07,27,08,46,20.50
2009,07,27,08,47,20.50
2009,07,27,08,48,20.50
2009,07,27,08,49,20.40
2009,07,27,08,50,20.30
2009,07,27,08,51,20.30
2009,07,27,08,52,20.30
2009,07,27,08,53,20.40
2009,07,27,08,54,20.40
2009,07,27,08,55,20.50
2009,07,27,08,56,20.50
2009,07,27,08,57,20.60
2009,07,27,08,58,20.70
2009,07,27,08,59,20.70
2009,07,27,09,00,20.80
2009,07,27,09,01,20.80
2009,07,27,09,02,20.90
2009,07,27,09,03,21.00
2009,07,27,09,04,21.00
2009,07,27,09,05,21.00
2009,07,27,09,06,21.10
2009,07,27,09,07,21.20
2009,07,27,09,08,21.20
2009,07,27,09,09,21.30
2009,07,27,09,10,21.40
2009,07,27,09,11,21.50
2009,07,27,09,12,21.60
2009,07,27,09,13,21.80
2009,07,27,09,14,21.90
2009,07,27,09,15,22.00
2009,07,27,09,16,22.10
2009,07,27,09,17,22.10
2009,07,27,09,18,22.20
2009,07,27,09,19,22.20
2009,07,27,09,20,22.10
2009,07,27,09,21,22.00
2009,07,27,09,22,22.00
2009,07,27,09,23,21.90
2009,07,27,09,24,21.90
2009,07,27,09,25,21.80
2009,07,27,09,26,21.70
2009,07,27,09,27,21.60
2009,07,27,09,28,21.60
2009,07,27,09,29,21.40
2009,07,27,09,30,21.40
2009,07,27,09,31,21.30
2009,07,27,09,32,21.30
2009,07,27,09,33,21.40
2009,07,27,09,34,21.50
2009,07,27,09,35,21.60
2009,07,27,09,36,21.60
2009,07,27,09,37,21.70
2009,07,27,09,38,21.80
2009,07,27,09,39,22.00
2009,07,27,09,40,22.10
2009,07,27,09,41,22.20
2009,07,27,09,42,22.30
2009,07,27,09,43,22.40
2009,07,27,09,44,22.50
2009,07,27,09,45,22.60
2009,07,27,09,46,22.70
2009,07,27,09,47,22.80
2009,07,27,09,48,22.90
2009,07,27,09,49,22.90
2009,07,27,09,50,23.00
2009,07,27,09,51,23.20
2009,07,27,09,52,23.20
2009,07,27,09,53,23.30
2009,07,27,09,54,23.30
2009,07,27,09,55,23.40
2009,07,27,09,56,23.50
2009,07,27,09,57,23.60
2009,07,27,09,58,23.70
2009,07,27,09,59,23.70
2009,07,27,10,00,23.70
2009,07,27,10,01,23.70
2009,07,27,10,02,23.70
2009,07,27,10,03,23.70
2009,07,27,10,04,23.70
2009,07,27,10,05,23.70
2009,07,27,10,06,23.70
2009,07,27,10,07,23.80
2009,07,27,10,08,23.90
2009,07,27,10,09,24.10
2009,07,27,10,10,24.10
2009,07,27,10,11,24.10
2009,07,27,10,12,24.00
2009,07,27,10,13,23.90
2009,07,27,10,14,23.80
2009,07,27,10,15,23.70
2009,07,27,10,16,23.70
2009,07,27,10,17,23.70
2009,07,27,10,18,23.70
2009,07,27,10,19,23.70
2009,07,27,10,20,23.70
2009,07,27,10,21,23.70
2009,07,27,10,22,23.70
2009,07,27,10,23,23.70
2009,07,27,10,24,23.70
2009,07,27,10,25,23.80
2009,07,27,10,26,23.90
2009,07,27,10,27,23.90
2009,07,27,10,28,24.00
2009,07,27,10,29,24.10
2009,07,27,10,30,24.10
2009,07,27,10,31,24.10
2009,07,27,10,32,24.10
2009,07,27,10,33,24.10
2009,07,27,10,34,24.10
2009,07,27,10,35,24.10
2009,07,27,10,36,24.10
2009,07,27,10,37,24.00
2009,07,27,10,38,23.90
2009,07,27,10,39,23.80
2009,07,27,10,40,23.80
2009,07,27,10,41,23.90
2009,07,27,10,42,23.90
2009,07,27,10,43,23.90
2009,07,27,10,44,24.00
2009,07,27,10,45,24.10
2009,07,27,10,46,24.10
2009,07,27,10,47,24.10
2009,07,27,10,48,24.10
2009,07,27,10,49,24.20
2009,07,27,10,50,24.30
2009,07,27,10,51,24.40
2009,07,27,10,52,24.50
2009,07,27,10,53,24.50
2009,07,27,10,54,24.60
2009,07,27,10,55,24.70
2009,07,27,10,56,24.80
2009,07,27,10,57,24.90
2009,07,27,10,58,24.90
2009,07,27,10,59,25.00
2009,07,27,11,00,25.00
2009,07,27,11,01,25.10
2009,07,27,11,02,25.10
2009,07,27,11,03,25.20
2009,07,27,11,04,25.20
2009,07,27,11,05,25.30
2009,07,27,11,06,25.30
2009,07,27,11,07,25.30
2009,07,27,11,08,25.30
2009,07,27,11,09,25.20
2009,07,27,11,10,25.20
2009,07,27,11,11,25.20
2009,07,27,11,12,25.20
2009,07,27,11,13,25.20
2009,07,27,11,14,25.20
2009,07,27,11,15,25.20
2009,07,27,11,16,25.20
2009,07,27,11,17,25.20
2009,07,27,11,18,25.20
2009,07,27,11,19,25.20
2009,07,27,11,20,25.10
2009,07,27,11,21,25.00
2009,07,27,11,22,24.90
2009,07,27,11,23,24.90
2009,07,27,11,24,24.90
2009,07,27,11,25,24.90
2009,07,27,11,26,24.80
2009,07,27,11,27,24.80
2009,07,27,11,28,24.70
2009,07,27,11,29,24.70
2009,07,27,11,30,24.60
2009,07,27,11,31,24.60
2009,07,27,11,32,24.60
2009,07,27,11,33,24.70
2009,07,27,11,34,24.80
2009,07,27,11,35,24.80
2009,07,27,11,36,24.80
2009,07,27,11,37,24.80
2009,07,27,11,38,24.80
2009,07,27,11,39,24.80
2009,07,27,11,40,24.80
2009,07,27,11,41,24.90
2009,07,27,11,42,25.00
2009,07,27,11,43,25.10
2009,07,27,11,44,25.20
2009,07,27,11,45,25.40
2009,07,27,11,46,25.50
2009,07,27,11,47,25.50
2009,07,27,11,48,25.50
2009,07,27,11,49,25.50
2009,07,27,11,50,25.50
2009,07,27,11,51,25.40
2009,07,27,11,52,25.40
2009,07,27,11,53,25.40
2009,07,27,11,54,25.40
2009,07,27,11,55,25.50
2009,07,27,11,56,25.50
2009,07,27,11,57,25.50
2009,07,27,11,58,25.60
2009,07,27,11,59,25.60
2009,07,27,12,00,25.60
2009,07,27,12,01,25.60
2009,07,27,12,02,25.70
2009,07,27,12,03,25.80
2009,07,27,12,04,25.80
2009,07,27,12,05,25.80
2009,07,27,12,06,25.90
2009,07,27,12,07,25.90
2009,07,27,12,08,25.90
2009,07,27,12,09,25.90
2009,07,27,12,10,25.90
2009,07,27,12,11,26.00
2009,07,27,12,12,26.00
2009,07,27,12,13,26.10
2009,07,27,12,14,26.20
2009,07,27,12,15,26.20
2009,07,27,12,16,26.30
2009,07,27,12,17,26.30
2009,07,27,12,18,26.40
2009,07,27,12,19,26.40
2009,07,27,12,20,26.30
2009,07,27,12,21,26.30
2009,07,27,12,22,26.30
2009,07,27,12,23,26.30
2009,07,27,12,24,26.20
2009,07,27,12,25,26.20
2009,07,27,12,26,26.30
2009,07,27,12,27,26.30
2009,07,27,12,28,26.40
2009,07,27,12,29,26.40
2009,07,27,12,30,26.30
2009,07,27,12,31,26.30
2009,07,27,12,32,26.30
2009,07,27,12,33,26.30
2009,07,27,12,34,26.30
2009,07,27,12,35,26.30
2009,07,27,12,36,26.30
2009,07,27,12,37,26.30
2009,07,27,12,38,26.40
2009,07,27,12,39,26.40
2009,07,27,12,40,26.30
2009,07,27,12,41,26.30
2009,07,27,12,42,26.20
2009,07,27,12,43,26.20
2009,07,27,12,44,26.20
2009,07,27,12,45,26.20
2009,07,27,12,46,26.20
2009,07,27,12,47,26.20
2009,07,27,12,48,26.20
2009,07,27,12,49,26.20
2009,07,27,12,50,26.30
2009,07,27,12,51,26.30
2009,07,27,12,52,26.30
2009,07,27,12,53,26.40
2009,07,27,12,54,26.40
2009,07,27,12,55,26.30
2009,07,27,12,56,26.30
2009,07,27,12,57,26.40
2009,07,27,12,58,26.40
2009,07,27,12,59,26.40
2009,07,27,13,00,26.60
2009,07,27,13,01,26.60
2009,07,27,13,02,26.60
2009,07,27,13,03,26.60
2009,07,27,13,04,26.60
2009,07,27,13,05,26.60
2009,07,27,13,06,26.50
2009,07,27,13,07,26.50
2009,07,27,13,08,26.60
2009,07,27,13,09,26.50
2009,07,27,13,10,26.50
2009,07,27,13,11,26.60
2009,07,27,13,12,26.60
2009,07,27,13,13,26.60
2009,07,27,13,14,26.60
2009,07,27,13,15,26.60
2009,07,27,13,16,26.70
2009,07,27,13,17,26.70
2009,07,27,13,18,26.70
2009,07,27,13,19,26.80
2009,07,27,13,20,26.80
2009,07,27,13,21,26.80
2009,07,27,13,22,26.90
2009,07,27,13,23,26.90
2009,07,27,13,24,26.90
2009,07,27,13,25,26.90
2009,07,27,13,26,27.00
2009,07,27,13,27,27.10
2009,07,27,13,28,27.10
2009,07,27,13,29,27.20
2009,07,27,13,30,27.20
2009,07,27,13,31,27.20
2009,07,27,13,32,27.30
2009,07,27,13,33,27.30
2009,07,27,13,34,27.30
2009,07,27,13,35,27.30
2009,07,27,13,36,27.20
2009,07,27,13,37,27.20
2009,07,27,13,38,27.20
2009,07,27,13,39,27.20
2009,07,27,13,40,27.20
2009,07,27,13,41,27.20
2009,07,27,13,42,27.10
2009,07,27,13,43,27.10
2009,07,27,13,44,27.20
2009,07,27,13,45,27.20
2009,07,27,13,46,27.20
2009,07,27,13,47,27.20
2009,07,27,13,48,27.20
2009,07,27,13,49,27.20
2009,07,27,13,50,27.20
2009,07,27,13,51,27.20
2009,07,27,13,52,27.10
2009,07,27,13,53,27.10
2009,07,27,13,54,27.10
2009,07,27,13,55,27.20
2009,07,27,13,56,27.20
2009,07,27,13,57,27.30
2009,07,27,13,58,27.30
2009,07,27,13,59,27.30
2009,07,27,14,00,27.30
2009,07,27,14,01,27.30
2009,07,27,14,02,27.30
2009,07,27,14,03,27.20
2009,07,27,14,04,27.20
2009,07,27,14,05,27.20
2009,07,27,14,06,27.10
2009,07,27,14,07,27.10
2009,07,27,14,08,27.20
2009,07,27,14,09,27.30
2009,07,27,14,10,27.30
2009,07,27,14,11,27.30
2009,07,27,14,12,27.30
2009,07,27,14,13,27.30
2009,07,27,14,14,27.30
2009,07,27,14,15,27.30
2009,07,27,14,16,27.30
2009,07,27,14,17,27.30
2009,07,27,14,18,27.40
2009,07,27,14,19,27.40
2009,07,27,14,20,27.60
2009,07,27,14,21,27.60
2009,07,27,14,22,27.50
2009,07,27,14,23,27.40
2009,07,27,14,24,27.40
2009,07,27,14,25,27.30
2009,07,27,14,26,27.30
2009,07,27,14,27,27.30
2009,07,27,14,28,27.40
2009,07,27,14,29,27.40
2009,07,27,14,30,27.60
2009,07,27,14,31,27.60
2009,07,27,14,32,27.60
2009,07,27,14,33,27.60
2009,07,27,14,34,27.60
2009,07,27,14,35,27.70
2009,07,27,14,36,27.60
2009,07,27,14,37,27.60
2009,07,27,14,38,27.50
2009,07,27,14,39,27.40
2009,07,27,14,40,27.40
2009,07,27,14,41,27.40
2009,07,27,14,42,27.40
2009,07,27,14,43,27.40
2009,07,27,14,44,27.40
2009,07,27,14,45,27.40
2009,07,27,14,46,27.40
2009,07,27,14,47,27.50
2009,07,27,14,48,27.60
2009,07,27,14,49,27.60
2009,07,27,14,50,27.70
2009,07,27,14,51,27.70
2009,07,27,14,52,27.70
2009,07,27,14,53,27.80
2009,07,27,14,54,28.00
2009,07,27,14,55,28.10
2009,07,27,14,56,28.10
2009,07,27,14,57,28.10
2009,07,27,14,58,28.10
2009,07,27,14,59,28.10
2009,07,27,15,00,28.20
2009,07,27,15,01,28.30
2009,07,27,15,02,28.30
2009,07,27,15,03,28.30
2009,07,27,15,04,28.30
2009,07,27,15,05,28.30
2009,07,27,15,06,28.20
2009,07,27,15,07,28.20
2009,07,27,15,08,28.20
2009,07,27,15,09,28.20
2009,07,27,15,10,28.20
2009,07,27,15,11,28.20
2009,07,27,15,12,28.20
2009,07,27,15,13,28.20
2009,07,27,15,14,28.20
2009,07,27,15,15,28.20
2009,07,27,15,16,28.30
2009,07,27,15,17,28.40
2009,07,27,15,18,28.40
2009,07,27,15,19,28.60
2009,07,27,15,20,28.60
2009,07,27,15,21,28.60
2009,07,27,15,22,28.50
2009,07,27,15,23,28.40
2009,07,27,15,24,28.50
2009,07,27,15,25,28.50
2009,07,27,15,26,28.50
2009,07,27,15,27,28.60
2009,07,27,15,28,28.60
2009,07,27,15,29,28.70
2009,07,27,15,30,28.80
2009,07,27,15,31,28.90
2009,07,27,15,32,28.90
2009,07,27,15,33,29.00
2009,07,27,15,34,29.10
2009,07,27,15,35,29.00
2009,07,27,15,36,28.90
2009,07,27,15,37,29.00
2009,07,27,15,38,29.10
2009,07,27,15,39,29.10
2009,07,27,15,40,29.10
2009,07,27,15,41,29.20
2009,07,27,15,42,29.20
2009,07,27,15,43,29.30
2009,07,27,15,44,29.30
2009,07,27,15,45,29.40
2009,07,27,15,46,29.40
2009,07,27,15,47,29.50
2009,07,27,15,48,29.50
2009,07,27,15,49,29.40
2009,07,27,15,50,29.40
2009,07,27,15,51,29.40
2009,07,27,15,52,29.40
2009,07,27,15,53,29.40
2009,07,27,15,54,29.40
2009,07,27,15,55,29.50
2009,07,27,15,56,29.50
2009,07,27,15,57,29.60
2009,07,27,15,58,29.70
2009,07,27,15,59,29.80
2009,07,27,16,00,29.80
2009,07,27,16,01,29.70
2009,07,27,16,02,29.70
2009,07,27,16,03,29.70
2009,07,27,16,04,29.80
2009,07,27,16,05,29.70
2009,07,27,16,06,29.70
2009,07,27,16,07,29.80
2009,07,27,16,08,29.80
2009,07,27,16,09,29.80
2009,07,27,16,10,29.90
2009,07,27,16,11,29.80
2009,07,27,16,12,29.90
2009,07,27,16,13,29.90
2009,07,27,16,14,29.70
2009,07,27,16,15,29.50
2009,07,27,16,16,29.20
2009,07,27,16,17,29.00
2009,07,27,16,18,28.80
2009,07,27,16,19,28.70
2009,07,27,16,20,28.60
2009,07,27,16,21,28.60
2009,07,27,16,22,28.60
2009,07,27,16,23,28.60
2009,07,27,16,24,28.70
2009,07,27,16,25,28.90
2009,07,27,16,26,28.90
2009,07,27,16,27,29.00
2009,07,27,16,28,29.10
2009,07,27,16,29,29.20
2009,07,27,16,30,29.30
2009,07,27,16,31,29.30
2009,07,27,16,32,29.30
2009,07,27,16,33,29.20
2009,07,27,16,34,29.00
2009,07,27,16,35,28.90
2009,07,27,16,36,28.80
2009,07,27,16,37,28.80
2009,07,27,16,38,28.80
2009,07,27,16,39,28.70
2009,07,27,16,40,28.60
2009,07,27,16,41,28.50
2009,07,27,16,42,28.40
2009,07,27,16,43,28.40
2009,07,27,16,44,28.30
2009,07,27,16,45,28.30
2009,07,27,16,46,28.30
2009,07,27,16,47,28.30
2009,07,27,16,48,28.40
2009,07,27,16,49,28.40
2009,07,27,16,50,28.40
2009,07,27,16,51,28.50
2009,07,27,16,52,28.60
2009,07,27,16,53,28.70
2009,07,27,16,54,28.80
2009,07,27,16,55,28.90
2009,07,27,16,56,29.00
2009,07,27,16,57,29.10
2009,07,27,16,58,29.20
2009,07,27,16,59,29.20
2009,07,27,17,00,29.20
2009,07,27,17,01,29.30
2009,07,27,17,02,29.40
2009,07,27,17,03,29.40
2009,07,27,17,04,29.50
2009,07,27,17,05,29.50
2009,07,27,17,06,29.50
2009,07,27,17,07,29.60
2009,07,27,17,08,29.70
2009,07,27,17,09,29.80
2009,07,27,17,10,29.80
2009,07,27,17,11,29.90
2009,07,27,17,12,29.90
2009,07,27,17,13,29.90
2009,07,27,17,14,29.90
2009,07,27,17,15,30.00
2009,07,27,17,16,30.10
2009,07,27,17,17,30.20
2009,07,27,17,18,30.30
2009,07,27,17,19,30.40